STARLINK-33803, 63517

Orbit data source: Space-Track

STARLINK-33803, 63517 is a payload satellite owned by SpaceX/Seattle (US) in LEO that was launched on Mon, 07 Apr 2025 UTC via an FALCON 9 launch vehicle from the Air Force Western Test Range (AFWTR). Payload-class satellites include a variety of spacecraft equipped with specific instruments for various scientific and technological missions. These include communications satellites like Starlink; space stations such as the ISS; scientific satellites like the Hubble; Earth observation satellites from companies like Planet Labs, Umbra, and HawkEye 360; GPS; miniature CubeSats for education and research; and military/defense satellites.

Loading next visibility...
Identifier
63517, 2025-071AA
Orbit
LEO
Last TLE update
5 days ago
Origin
Manufacturer
SpaceX/Seattle
Mission
Operational spacecraft
Bus & Motor
STARLINK V2MO, Unknown motor
Mass
575 kg wet, ~530 kg dry
Launch date (UTC)
2025-04-07 (3 weeks ago)
Launch vehicle
FALCON 9
Launch site
Air Force Western Test Range (AFWTR)
Object type
Payload
Rocket body
Debris
Shape & HBR
Unknown
Radar Cross Section
Large (>1 m²)

Expand to show TLE details & history

TLE from 5 days ago
0 STARLINK-33803
1 63517U 25071AA  25115.26447379 -.00812875  00000-0 -58318-2 0  9993
2 63517  53.1553 185.6513 0001875 122.3865 237.7337 15.75221221  3927
Epoch: 2025-04-25T06:20Z
Definitive object data (Epoch: 2025-04-25T06:20:50.535Z)
Latitude
-0.00001°
Longitude
-123.08331°
Altitude
345.591 km
Speed
7.702 km/s
True Right ascension
12h 22m 36s
True Declination
0° 00' 00"
Sunlit
Object was in full shadow at TLE epoch
Visualization TLE readout
Latitude
-17.14381°
Longitude
44.58631°
Altitude
370.85 km
Speed
7.687 km/s
Apparent Right ascension
02h 20m 27s
Apparent Declination
-40° 11' 51"
Sunlit
Object is in daylight
Visualization observer readout
Local Sidereal Time
18:25:53
Azimuth
111.206° ESE
Elevation
-44.025°
Doppler factor
1
Orbital elements
Apogee altitude
345.524 km
Perigee altitude
343.003 km
Semi-major axis
6,722.401 km
Eccentricity
0.0001875
Inclination
53.1553°
RAAN
185.6513°
Arg. of periapsis
122.3865°
True anomaly
237.71553°
Mean anomaly
237.7337°
Eccentric anomaly
237.72462°
Mean motion
3.93783 °/min
BSTAR
-0.0058318
Orbital period
91.42 mins
Loading maneuver chart data...
Loading SW <> Apogee altitude chart data...
Loading historical data...
Loading historical data...
Loading historical data...
Loading historical data...
Loading historical data...
Loading historical data...
Loading historical data...

STARLINK-33803 Visibility forecast

Observer location: undefined°, undefined°

Span
Click to sort rows by Start time (UTC) header in descending order
Start Az.
Max El. time (UTC)
Max El. Az.
Max El.
End time (UTC)
End Az.
5 mins2025-04-30 12:00:48.313Z321.427° NNW2025-04-30 12:03:48.313Z51.955° ENE34.671°2025-04-30 12:05:48.313Z106.682° ESE
|